Weather History for KSUS - November, 2013

Change the Weather History Date:

Thursday, November 21, 2013

  Actual Average Record
Temperature  
Mean Temperature 50 °F -  
Max Temperature 51 °F 51 °F 68 °F (2003)
Min Temperature 48 °F 31 °F 12 °F (2000)
Degree Days  
Heating Degree Days 16    
Moisture  
Dew Point 47 °F    
Average Humidity 90    
Maximum Humidity 96    
Minimum Humidity 71    
Precipitation  
Precipitation 0.31 in - - ()
Sea Level Pressure  
Sea Level Pressure 30.14 in    
Wind  
Wind Speed 2 mph (SSE)    
Max Wind Speed 6 mph    
Max Gust Speed -    
Visibility 4 miles    
Events Fog , Rain    
Averages and records for this station are not official NWS values.
T = Trace of Precipitation, MM = Missing Value Source: NWS Daily Summary

Daily Weather History Graph

Daily Weather History Graph

Search for Another Location

Airport or City:

Trip Planner

Search our weather history database for the weather conditions in past years. The results will help you decide how hot, cold, wet, or windy it might be!

Date:

Astronomy

Nov. 21, 2013 Rise Set
Actual Time 6:51 AM CST 4:45 PM CST
Civil Twilight 6:22 AM CST 5:14 PM CST
Nautical Twilight 5:50 AM CST 5:46 PM CST
Astronomical Twilight 5:18 AM CST 6:18 PM CST
Moon 8:21 PM CST (11/21) 9:58 AM CST (11/21)
Length of Visible Light 10h 51m
Length of Day
9h 53m
Waning Gibbous, 85% of the Moon is Illuminated
Nov 21
Waning Gibbous
Nov 25
Last Quarter
Dec 2
New
Dec 9
First Quarter
Dec 17
Full

Hourly Weather History & Observations

Time (CST) Temp. Dew Point Humidity Pressure Visibility Wind Dir Wind Speed Gust Speed Precip Events Conditions
12:54 AM 48.0 °F 41.0 °F 77% 30.09 in 10.0 mi ESE 3.5 mph - 0.00 in   Overcast
1:54 AM 48.9 °F 41.0 °F 74% 30.10 in 10.0 mi SE 3.5 mph - N/A   Overcast
2:54 AM 48.0 °F 42.1 °F 80% 30.09 in 10.0 mi East 4.6 mph - N/A   Overcast
3:54 AM 48.9 °F 41.0 °F 74% 30.09 in 10.0 mi Calm Calm - N/A   Overcast
4:54 AM 48.9 °F 41.0 °F 74% 30.09 in 10.0 mi Calm Calm - N/A   Overcast
5:54 AM 50.0 °F 41.0 °F 71% 30.11 in 10.0 mi Calm Calm - N/A   Overcast
6:54 AM 50.0 °F 42.1 °F 74% 30.12 in 10.0 mi South 3.5 mph - 0.00 in Rain Light Rain
7:54 AM 50.0 °F 44.1 °F 80% 30.13 in 10.0 mi Variable 4.6 mph - 0.01 in Rain Light Rain
8:54 AM 50.0 °F 46.0 °F 86% 30.13 in 10.0 mi South 5.8 mph - 0.00 in Rain Light Rain
9:54 AM 50.0 °F 46.9 °F 89% 30.14 in 6.0 mi South 4.6 mph - 0.03 in Rain Light Rain
10:30 AM 50.0 °F 48.2 °F 94% 30.15 in 5.0 mi Calm Calm - 0.04 in Rain Light Rain
10:54 AM 50.0 °F 48.0 °F 93% 30.15 in 3.0 mi South 3.5 mph - 0.08 in Rain Rain
11:54 AM 50.0 °F 48.0 °F 93% 30.13 in 3.0 mi SSW 4.6 mph - 0.08 in Rain Light Rain
12:05 PM 50.0 °F 48.2 °F 94% 30.13 in 6.0 mi Calm Calm - 0.01 in Rain Light Rain
12:26 PM 50.0 °F 48.2 °F 94% 30.12 in 2.5 mi Calm Calm - 0.03 in Rain Rain
12:43 PM 50.0 °F 48.2 °F 94% 30.11 in 3.0 mi Calm Calm - 0.07 in Rain Light Rain
12:54 PM 50.0 °F 48.0 °F 93% 30.11 in 5.0 mi Calm Calm - 0.08 in Rain Light Rain
1:54 PM 50.0 °F 48.0 °F 93% 30.11 in 10.0 mi Calm Calm - 0.01 in   Overcast
2:21 PM 50.0 °F 48.2 °F 94% 30.11 in 1.8 mi Calm Calm - 0.00 in   Overcast
2:50 PM 50.0 °F 48.2 °F 94% 30.11 in 1.0 mi Calm Calm - 0.01 in   Overcast
2:54 PM 50.0 °F 48.9 °F 96% 30.11 in 1.0 mi Calm Calm - 0.01 in   Overcast
3:54 PM 51.1 °F 48.9 °F 92% 30.12 in 1.0 mi SSE 3.5 mph - N/A   Overcast
4:01 PM 51.8 °F 48.2 °F 88% 30.11 in 2.0 mi Calm Calm - N/A   Overcast
4:54 PM 51.1 °F 48.9 °F 92% 30.13 in 2.0 mi Calm Calm - N/A   Overcast
5:07 PM 51.8 °F 48.2 °F 88% 30.13 in 2.0 mi Calm Calm - N/A   Overcast
5:16 PM 51.8 °F 48.2 °F 88% 30.14 in 2.0 mi Calm Calm - N/A   Overcast
5:54 PM 50.0 °F 48.9 °F 96% 30.15 in 2.0 mi Calm Calm - N/A   Overcast
6:03 PM 50.0 °F 48.2 °F 94% 30.15 in 3.0 mi Calm Calm - N/A   Overcast
6:13 PM 50.0 °F 48.2 °F 94% 30.16 in 2.5 mi Calm Calm - N/A   Overcast
6:24 PM 50.0 °F 48.2 °F 94% 30.15 in 2.5 mi Calm Calm - N/A   Overcast
6:54 PM 50.0 °F 48.9 °F 96% 30.17 in 2.5 mi Calm Calm - N/A   Overcast
7:03 PM 50.0 °F 48.2 °F 94% 30.16 in 3.0 mi Calm Calm - N/A   Overcast
7:16 PM 50.0 °F 48.2 °F 94% 30.16 in 2.0 mi Calm Calm - N/A   Overcast
7:20 PM 50.0 °F 48.2 °F 94% 30.16 in 1.8 mi Calm Calm - N/A   Overcast
7:29 PM 50.0 °F 48.2 °F 94% 30.17 in 1.2 mi Calm Calm - N/A   Overcast
7:54 PM 50.0 °F 48.9 °F 96% 30.18 in 1.8 mi Calm Calm - N/A   Overcast
8:03 PM 50.0 °F 48.2 °F 94% 30.17 in 2.0 mi Calm Calm - N/A   Overcast
8:10 PM 50.0 °F 48.2 °F 94% 30.18 in 1.8 mi Calm Calm - N/A   Overcast
8:54 PM 50.0 °F 48.9 °F 96% 30.18 in 1.0 mi Calm Calm - N/A   Overcast
9:26 PM 50.0 °F 48.2 °F 94% 30.19 in 1.0 mi Calm Calm - 0.01 in   Overcast
9:54 PM 50.0 °F 48.9 °F 96% 30.20 in 1.0 mi Calm Calm - 0.01 in   Mist
10:01 PM 50.0 °F 48.2 °F 94% 30.19 in 0.5 mi Calm Calm - N/A Fog Fog
10:10 PM 50.0 °F 48.2 °F 94% 30.20 in 0.5 mi Calm Calm - N/A Fog Fog
10:40 PM 50.0 °F 48.2 °F 94% 30.20 in 0.2 mi Calm Calm - N/A Fog Fog
10:47 PM 50.0 °F 48.2 °F 94% 30.19 in 0.5 mi Calm Calm - N/A Fog Fog
10:54 PM 50.0 °F 48.9 °F 96% 30.20 in 0.5 mi Calm Calm - N/A Fog Fog
11:54 PM 50.0 °F 48.9 °F 96% 30.21 in 1.0 mi Calm Calm - N/A   Overcast